Location: Observatoire
(46.1952°N, 5.3391°E)
Time: 04:15:27
(UTC+01:00)

Altair - Pass Details

Date: 18 February 2026
Orbit: 1502 x 1682 km, 47.2° (Epoch: 7 March)

Event Time Altitude Azimuth Distance (km) Brightness Sun altitude
Rises 03:57:03 0° 205° (SSW) 4,620 - -38.0°
Reaches altitude 10° 04:00:24 10° 196° (SSW) 3,643 - -37.5°
Exits shadow 04:06:19 31° 159° (SSE) 2,394 8.4 -36.6°
Maximum altitude 04:08:18 34° 136° (SE) 2,291 8.4 -36.2°
Drops below altitude 10° 04:16:21 10° 76° (ENE) 3,721 10.3 -35.0°
Sets 04:19:47 0° 68° (ENE) 4,731 11.1 -34.4°
